星链-4501 (STARLINK-4501 )

导读 | 星芒AI

STARLINK-4501 是 SpaceX 星链计划中的一颗低轨通信卫星,属于第45次星链任务发射的卫星群之一。该卫星旨在为全球用户提供高速互联网服务,支持偏远地区的网络接入。它运行在约550公里高的近地轨道,配备先进通信设备和激光链路,以实现高效数据传输。作为星链系统的一部分,STARLINK-4501 有助于构建覆盖全球的卫星互联网网络,提升全球通信能力。

基本信息
目录编号:
53553
目录名称:
STARLINK-4501
国际标识:
2022-101AC
轨道中心:
EARTH
卫星名称:
星链-4501
卫星全名:
星链-4501 (STARLINK-4501 )
卫星状态:
在轨 (已飞行1220 天)
发射日期:
2022-08-19 UTC
国别 :
美国 (US)
星等 :
--
轨道信息
数据来源 国际轨道数据
星历时间: 2025-12-20T18:27:41+0800
21小时前
查看轨道信息
半长轴: 6917.889km
偏心率: 0.0001202
轨道倾角: 53.218°
近地点辐角 90.439°
升交点赤经 59.778°
平近点角 269.674°
近地点: 538.92km
远地点: 540.584km
周期: 95.438分钟
每日圈数: 15.088373
详细信息
固有亮度:
5
最大亮度:
2.5
卫星平台:
Starlink v1.5
覆盖范围:
全球
运营商:
太空探索技术公司
运营商所在国:
美国
制造商(研发单位):
太空探索技术公司
制造商所在国:
美国
使用方式:
暂无
卫星简介
星链(Starlink)计划是由太空探索技术公司(SpaceX)提出的一个巨型低轨卫星互联网星座项目,计划在2019年至2024年间在太空搭建由约1.2万颗卫星组成的“星链”网络,其中1584颗将部署在地球上空550千米处的近地轨道,并从2020年开始工作。该卫星仍在工作。
2D轨道图
3D轨道图
轨道高度分析图
轨道倾角分析图
轨道综合分析图
查看轨道综合分析图